[[[{"header":{"parameterUnit":"kt","parameterCategory":2,"dx":1,"dy":1,"la1":30.253999710083008,"la2":30.299108505249023,"lo1":-89.0895004272461,"lo2":-89.04439544677734,"nx":28,"ny":28,"refTime":"2022-09-21T21:00:00:Z","depth":0,"parameterNumber":1,"parameterNumberName":"U-component_of_WINDS"},"data":[2.8372,2.8403,2.8364,2.8382,2.835,2.8355,2.8345,2.8327,2.8303,2.8306,2.8301,2.8266,2.8228,2.8213,2.8205,2.819,2.8188,2.8227,2.8202,2.8063,2.8041,2.802,2.8008,2.8229,2.8229,2.8349,2.8351,2.8352,2.8272,2.824,2.8239,2.8211,2.8209,2.8147,2.8121,2.8123,2.813,2.8102,2.8095,2.8094,2.809,2.8037,2.8026,2.804,2.801,2.8039,2.8036,2.803,2.7881,2.7869,2.8063,2.8063,2.8063,2.8063,2.8063,2.8063,2.8078,2.8099,2.8058,2.8056,2.8031,2.8013,2.8026,2.7982,2.798,2.7963,2.7918,2.7926,2.789,2.7858,2.7839,2.7844,2.7804,2.7824,2.7828,2.7833,2.7843,2.7669,2.7841,2.784,2.7839,2.7839,2.7838,0,2.7923,2.7888,2.7884,2.7868,2.7865,2.7849,2.7828,2.7836,2.775,2.7753,2.7754,2.7747,2.7736,2.7732,2.7714,2.7688,2.7624,2.7615,2.7627,2.7647,2.7666,2.7653,2.7409,2.7609,2.7607,2.7606,2.7604,2.7604,2.7721,2.7751,2.769,2.7692,2.7671,2.7677,2.7672,2.7594,2.7593,2.7557,2.758,2.7575,2.7567,2.7576,2.7524,2.7516,2.7484,2.7565,2.7483,2.7501,2.7481,2.7479,2.748,2.7581,2.7584,2.7586,2.7588,0,2.761,2.7545,2.7579,2.7516,2.7501,2.7537,2.7482,2.7501,2.7456,2.7475,2.7475,2.7404,2.7407,2.7341,2.7333,2.7298,2.7355,2.7326,2.7365,2.7355,2.7418,2.7412,2.7639,2.7663,2.7438,2.744,2.7442,0,2.7411,2.7454,2.7354,2.7377,2.7422,2.7342,2.7389,2.7354,2.7321,2.7336,2.7252,2.7268,2.7182,2.7188,2.7138,2.7173,2.7172,2.7147,2.7132,2.7152,2.7155,2.7149,2.7137,2.7103,2.7102,2.7101,2.71,0,2.7241,2.724,2.7278,2.7267,2.7204,2.7224,2.7199,2.7161,2.7158,2.7144,2.714,2.7131,2.7125,2.7119,2.7053,2.7,2.7097,2.7009,2.707,2.7072,2.7093,2.7092,2.7312,2.7098,2.7098,2.7098,2.7097,0,2.7069,2.7055,2.7121,2.7065,2.7068,2.7094,2.7076,2.7084,2.7051,2.702,2.7008,2.6944,2.6971,2.6889,2.6925,2.6873,2.6872,2.6851,2.6854,2.685,2.6758,2.6887,2.7107,2.7125,2.685,2.6847,2.6846,0,2.6891,2.6941,2.687,2.6936,2.6948,2.685,2.6878,2.6852,2.6812,2.6818,2.6774,2.6783,2.6707,2.67,2.6728,2.6683,2.6751,2.6672,2.668,2.6681,2.6688,2.6889,2.6936,2.7066,2.6818,2.6821,2.6823,0,2.6745,2.6667,2.6684,2.6666,2.6617,2.6629,2.6662,2.665,2.6657,2.6639,2.6662,2.6674,2.6616,2.6607,2.6554,2.6585,2.6703,2.6519,2.6517,2.6552,2.68,2.6844,2.6867,2.666,2.6663,2.6666,2.6802,0,2.6492,2.6509,2.6552,2.652,2.6518,2.6556,2.6483,2.6491,2.6438,2.6395,2.6432,2.6394,2.6385,2.6394,2.6344,2.6438,2.6411,2.635,2.6263,2.6397,2.644,2.6458,2.6205,2.6202,2.6199,2.6197,0,0,2.6337,2.6359,2.6281,2.6309,2.6302,2.6199,2.6246,2.6228,2.6195,2.6193,2.6144,2.6154,2.6126,2.6178,2.6214,2.6212,2.6221,2.6178,2.6335,2.635,2.6365,2.6412,2.6431,2.6193,2.6192,2.6191,2.619,0,2.6228,2.6201,2.6248,2.6225,2.6188,2.614,2.6152,2.6097,2.6072,2.6108,2.6022,2.6036,2.6049,2.6028,2.602,2.617,2.6105,2.6174,2.6277,2.6312,2.6331,2.6348,2.6398,2.6418,2.6184,2.6185,2.6185,0,2.6068,2.6027,2.6043,2.6024,2.5999,2.6016,2.5906,2.593,2.5942,2.5829,2.5866,2.5836,2.5804,2.5864,2.5888,2.5844,2.6002,2.5941,2.5955,2.5955,2.5986,2.6009,2.603,2.576,2.5759,2.5757,0,0,2.5984,2.6,2.5931,2.5995,2.5985,2.5914,2.5916,2.5863,2.5836,2.5825,2.5784,2.5761,2.5766,2.5772,2.5774,2.5851,2.5836,2.5892,2.5912,2.5928,2.5938,2.5973,2.5996,2.5753,2.5753,2.5753,0,0,2.5944,2.5866,2.5817,2.5882,2.5858,2.5795,2.5837,2.5775,2.5769,2.5757,2.567,2.566,2.5715,2.5689,2.5636,2.5741,2.5657,2.5668,2.5756,2.578,2.58,2.5803,2.5518,0,0,0,0,0,2.5795,2.5875,2.5832,2.5832,2.5808,2.582,2.5816,2.5745,2.5685,2.572,2.5675,2.5606,2.5642,2.5594,2.5595,2.5654,2.5695,2.5705,2.5715,2.5846,2.5872,2.5894,0,0,0,0,0,0,2.5794,2.5794,2.5829,2.5772,2.5765,2.5816,2.5699,2.5682,2.568,2.5666,2.5616,2.5604,2.5545,2.5588,2.5591,2.5647,2.5517,2.5699,2.5707,2.5715,2.5854,2.5876,2.5894,0,0,0,0,0,2.5793,2.5793,2.5773,2.577,2.5764,2.5689,2.5695,2.568,2.5677,2.5609,2.5594,2.5624,2.5548,2.5546,2.5589,2.5648,2.5515,2.5516,2.5704,2.5711,2.5717,2.5865,0,0,0,0,0,0,2.5792,2.5779,2.577,2.5766,2.5733,2.5685,2.5674,2.5679,2.5619,2.5606,2.5612,2.5601,2.5552,2.5549,2.5548,2.5652,2.5513,2.5514,2.5515,2.571,2.5715,2.572,0,0,0,0,0,0,2.5779,2.5777,2.5768,2.5726,2.5716,2.5681,2.5672,2.5699,2.562,2.5625,2.5614,2.5608,2.5554,2.5552,2.555,2.5596,2.5512,2.5513,2.5514,2.5514,2.5714,2.5718,0,0,0,0,0,0,2.5776,2.5774,2.5727,2.572,2.5711,2.5657,2.5704,2.5684,2.5583,2.5629,2.5572,2.5567,2.556,2.5556,2.5553,2.56,2.5597,2.5512,2.5512,2.5513,2.5513,0,0,0,0,0,0,0,2.5775,2.5805,2.5796,2.5714,2.5706,2.5727,2.5726,2.5724,2.5582,2.5578,2.5573,2.5569,2.5505,2.5506,2.5507,2.5603,0,0,2.5512,2.5512,0,0,0,0,0,0,0,0,2.5804,2.5805,2.5795,2.5795,2.5794,2.5726,2.5726,2.5725,2.5581,2.5578,2.5574,2.5571,2.5505,2.5506,2.5507,0,0,0,0,0,0,0,0,0,0,0,0,0,0,0,2.5795,2.5795,0,2.5726,2.5726,2.5725,2.5581,2.5578,2.5575,2.5572,2.5505,2.5506,2.5507,0,0,0,0,0,0,0,0,0,0,0,0,0,0,0,0,0,0,0,0,0,0,0,0,0,0,0,0,0,0,0,0,0,0,0,0,0,0,0,0,0,0,0,0,0,0,0,0,0,0,0,0,0,0,0,0,0,0,0,0,0,0,0,0,0,0,0,0,0]}],[{"header":{"parameterUnit":"kt","parameterCategory":2,"dx":1,"dy":1,"la1":30.253999710083008,"la2":30.299108505249023,"lo1":-89.0895004272461,"lo2":-89.04439544677734,"nx":28,"ny":28,"refTime":"2022-09-21T21:00:00:Z","depth":0,"parameterNumber":2,"parameterNumberName":"V-component_of_WINDS"},"data":[-0.8033,-0.8096,-0.8139,-0.8233,-0.8288,-0.836,-0.8401,-0.8458,-0.8515,-0.8609,-0.8672,-0.8724,-0.8801,-0.8889,-0.8961,-0.8984,-0.9012,-0.9003,-0.9031,-0.9027,-0.903,-0.9032,-0.9019,-0.9008,-0.9008,-0.903,-0.903,-0.903,-0.803,-0.8084,-0.8145,-0.8234,-0.8289,-0.8323,-0.8398,-0.8442,-0.8506,-0.8577,-0.864,-0.8728,-0.8803,-0.8885,-0.8966,-0.9,-0.9023,-0.9019,-0.9018,-0.903,-0.9027,-0.9013,-0.9,-0.9,-0.9,-0.9,-0.9,-0.9,-0.8037,-0.8073,-0.8151,-0.8219,-0.8275,-0.8335,-0.8378,-0.844,-0.8503,-0.8589,-0.863,-0.8705,-0.8786,-0.8905,-0.8957,-0.9019,-0.9031,-0.9042,-0.9045,-0.9047,-0.9044,-0.901,-0.9035,-0.9035,-0.9035,-0.9035,-0.9036,0,-0.8056,-0.8089,-0.815,-0.8225,-0.8276,-0.8338,-0.8403,-0.8431,-0.8519,-0.8567,-0.8641,-0.8691,-0.8792,-0.8868,-0.8954,-0.9006,-0.9049,-0.9058,-0.9066,-0.9047,-0.9021,-0.9037,-0.9032,-0.9057,-0.9057,-0.9057,-0.9058,-0.9058,-0.8067,-0.8103,-0.8205,-0.8243,-0.8288,-0.8347,-0.8392,-0.8466,-0.8511,-0.8603,-0.8633,-0.8709,-0.8774,-0.8887,-0.8962,-0.9038,-0.906,-0.9065,-0.9072,-0.9053,-0.9062,-0.906,-0.9065,-0.9062,-0.9061,-0.9061,-0.906,0,-0.807,-0.814,-0.8209,-0.8307,-0.8333,-0.8368,-0.8453,-0.8493,-0.8549,-0.8612,-0.8631,-0.872,-0.8792,-0.8866,-0.8963,-0.9,-0.9065,-0.9083,-0.9038,-0.9046,-0.9059,-0.9058,-0.9086,-0.9095,-0.9105,-0.9105,-0.9105,0,-0.8108,-0.8152,-0.8253,-0.8289,-0.8342,-0.8415,-0.8466,-0.8518,-0.8587,-0.8637,-0.8696,-0.8742,-0.8829,-0.8888,-0.8942,-0.9007,-0.9025,-0.9058,-0.9072,-0.9053,-0.9049,-0.9079,-0.908,-0.91,-0.91,-0.91,-0.91,0,-0.8105,-0.821,-0.827,-0.8305,-0.8414,-0.8441,-0.8488,-0.8564,-0.8607,-0.8676,-0.8705,-0.878,-0.8821,-0.8879,-0.8948,-0.895,-0.9029,-0.9046,-0.9063,-0.9061,-0.9076,-0.9075,-0.9081,-0.9099,-0.9099,-0.9099,-0.9099,0,-0.8146,-0.821,-0.8285,-0.8377,-0.8402,-0.8441,-0.8518,-0.8569,-0.8646,-0.8682,-0.8736,-0.8784,-0.8845,-0.8857,-0.8944,-0.8928,-0.8966,-0.9003,-0.9005,-0.9016,-0.9027,-0.9022,-0.9019,-0.9022,-0.9026,-0.9025,-0.9025,0,-0.8125,-0.8218,-0.828,-0.835,-0.8403,-0.8465,-0.8511,-0.8576,-0.8627,-0.8682,-0.874,-0.8802,-0.8826,-0.8856,-0.8889,-0.8952,-0.8973,-0.8951,-0.9034,-0.9036,-0.9012,-0.901,-0.8991,-0.9011,-0.9018,-0.9018,-0.9019,0,-0.8117,-0.8246,-0.8253,-0.8297,-0.8392,-0.8437,-0.8489,-0.8565,-0.8598,-0.8663,-0.8711,-0.8799,-0.8822,-0.8869,-0.8916,-0.8947,-0.8961,-0.8967,-0.897,-0.8964,-0.9019,-0.9002,-0.9005,-0.8986,-0.8987,-0.8988,-0.9013,0,-0.8166,-0.822,-0.8244,-0.8335,-0.838,-0.8427,-0.8502,-0.854,-0.858,-0.8632,-0.8702,-0.8774,-0.8853,-0.8874,-0.8913,-0.8959,-0.8963,-0.8986,-0.9003,-0.9001,-0.9011,-0.9015,-0.8982,-0.8982,-0.8983,-0.8984,0,0,-0.8129,-0.8208,-0.8272,-0.8323,-0.8366,-0.8428,-0.8472,-0.8521,-0.8617,-0.8646,-0.8656,-0.879,-0.8848,-0.8925,-0.893,-0.8961,-0.8977,-0.8974,-0.9001,-0.9002,-0.9004,-0.9014,-0.9017,-0.8985,-0.8986,-0.8986,-0.8986,0,-0.8162,-0.8215,-0.8256,-0.8309,-0.8389,-0.8441,-0.8451,-0.8542,-0.8577,-0.8644,-0.8696,-0.8747,-0.885,-0.8906,-0.8947,-0.8967,-0.9004,-0.8985,-0.8971,-0.9006,-0.9007,-0.9007,-0.9017,-0.9019,-0.8988,-0.8988,-0.8988,0,-0.8168,-0.8233,-0.826,-0.8356,-0.8409,-0.8462,-0.8498,-0.8551,-0.8592,-0.8657,-0.8723,-0.8773,-0.8853,-0.8914,-0.8945,-0.8955,-0.9023,-0.9014,-0.9011,-0.9016,-0.9055,-0.9055,-0.9055,-0.905,-0.905,-0.905,0,0,-0.8186,-0.8236,-0.8328,-0.8369,-0.8398,-0.8476,-0.8511,-0.8553,-0.8622,-0.8649,-0.8713,-0.878,-0.8841,-0.888,-0.8942,-0.8998,-0.9022,-0.9019,-0.9016,-0.9013,-0.9017,-0.9054,-0.9054,-0.905,-0.905,-0.905,0,0,-0.8195,-0.8303,-0.833,-0.8385,-0.8447,-0.8542,-0.8565,-0.8601,-0.8663,-0.8665,-0.8741,-0.8762,-0.8821,-0.8868,-0.8854,-0.8949,-0.8965,-0.897,-0.8916,-0.8913,-0.8911,-0.8898,-0.8902,0,0,0,0,0,-0.8265,-0.829,-0.8313,-0.8333,-0.8455,-0.8529,-0.8546,-0.8607,-0.8617,-0.8634,-0.8694,-0.873,-0.8877,-0.8866,-0.8886,-0.8901,-0.9045,-0.9046,-0.9047,-0.8992,-0.8988,-0.8985,0,0,0,0,0,0,-0.8274,-0.8298,-0.8312,-0.8407,-0.8435,-0.8529,-0.856,-0.8577,-0.8617,-0.8622,-0.8717,-0.8733,-0.8788,-0.886,-0.8877,-0.889,-0.8896,-0.9045,-0.9046,-0.9047,-0.8991,-0.8988,-0.8985,0,0,0,0,0,-0.8281,-0.83,-0.8479,-0.8407,-0.8431,-0.8519,-0.8559,-0.8574,-0.8606,-0.8698,-0.8714,-0.8649,-0.8786,-0.8805,-0.8871,-0.888,-0.8885,-0.8891,-0.9046,-0.9047,-0.9047,-0.8989,0,0,0,0,0,0,-0.8286,-0.8315,-0.8485,-0.8495,-0.8401,-0.8515,-0.8535,-0.8571,-0.868,-0.8697,-0.8633,-0.8636,-0.8786,-0.8801,-0.8815,-0.8874,-0.8875,-0.8882,-0.8886,-0.9046,-0.9047,-0.9047,0,0,0,0,0,0,-0.8305,-0.8323,-0.849,-0.848,-0.8489,-0.8511,-0.8529,-0.8593,-0.8681,-0.8609,-0.8615,-0.8633,-0.8765,-0.8797,-0.8809,-0.8907,-0.8868,-0.8874,-0.8878,-0.8881,-0.9047,-0.9047,0,0,0,0,0,0,-0.8314,-0.833,-0.8477,-0.8484,-0.8493,-0.8608,-0.8569,-0.8691,-0.8669,-0.8603,-0.8669,-0.8669,-0.8761,-0.8774,-0.8804,-0.8897,-0.8904,-0.8868,-0.8872,-0.8875,-0.8877,0,0,0,0,0,0,0,-0.8321,-0.8203,-0.8426,-0.8489,-0.8496,-0.8586,-0.8588,-0.8591,-0.8669,-0.8669,-0.8669,-0.8669,-0.8834,-0.8841,-0.8847,-0.8889,0,0,-0.8868,-0.8871,0,0,0,0,0,0,0,0,-0.8198,-0.8201,-0.8427,-0.8429,-0.8431,-0.8586,-0.8588,-0.8591,-0.8669,-0.8669,-0.8669,-0.8669,-0.8836,-0.8841,-0.8847,0,0,0,0,0,0,0,0,0,0,0,0,0,0,0,-0.8427,-0.8429,0,-0.8586,-0.8588,-0.859,-0.8669,-0.8669,-0.8669,-0.8669,-0.8837,-0.8842,-0.8846,0,0,0,0,0,0,0,0,0,0,0,0,0,0,0,0,0,0,0,0,0,0,0,0,0,0,0,0,0,0,0,0,0,0,0,0,0,0,0,0,0,0,0,0,0,0,0,0,0,0,0,0,0,0,0,0,0,0,0,0,0,0,0,0,0,0,0,0,0]}]]]